TimeMDT,TemperatureF,Dew PointF,Humidity,Sea Level PressureIn,VisibilityMPH,Wind Direction,Wind SpeedMPH,Gust SpeedMPH,PrecipitationIn,Events,Conditions,WindDirDegrees,DateUTC
12:53 AM,46.9,25.0,42,30.10,10.0,ESE,11.5,-,N/A,,Clear,110,2013-05-10 06:53:00
1:53 AM,46.4,26.6,46,30.07,10.0,ESE,11.5,-,N/A,,Clear,120,2013-05-10 07:53:00
2:53 AM,44.1,26.1,49,30.08,10.0,ESE,9.2,-,N/A,,Clear,120,2013-05-10 08:53:00
3:53 AM,43.0,28.0,56,30.07,10.0,SE,6.9,-,N/A,,Clear,130,2013-05-10 09:53:00
4:53 AM,44.1,30.0,58,30.06,10.0,ESE,4.6,-,N/A,,Scattered Clouds,110,2013-05-10 10:53:00
5:53 AM,42.8,30.2,61,30.05,10.0,Calm,Calm,-,N/A,,Partly Cloudy,0,2013-05-10 11:53:00
6:53 AM,50.0,35.1,57,30.11,10.0,NNW,8.1,-,N/A,,Mostly Cloudy,340,2013-05-10 12:53:00
7:53 AM,59.0,37.0,44,30.13,10.0,NNE,19.6,-,N/A,,Scattered Clouds,20,2013-05-10 13:53:00
8:53 AM,57.0,39.0,51,30.18,10.0,North,23.0,32.2,N/A,,Mostly Cloudy,360,2013-05-10 14:53:00
9:53 AM,55.9,35.1,45,30.24,10.0,North,21.9,26.5,N/A,,Overcast,10,2013-05-10 15:53:00
10:53 AM,55.9,28.9,36,30.27,10.0,North,21.9,31.1,N/A,,Overcast,360,2013-05-10 16:53:00
11:53 AM,57.0,24.1,28,30.32,10.0,NNE,21.9,29.9,N/A,,Clear,20,2013-05-10 17:53:00
12:53 PM,57.9,26.1,30,30.34,10.0,NNW,21.9,-,N/A,,Partly Cloudy,340,2013-05-10 18:53:00
1:53 PM,60.1,25.0,26,30.35,10.0,NNW,17.3,26.5,N/A,,Scattered Clouds,340,2013-05-10 19:53:00
2:53 PM,59.0,26.1,28,30.35,10.0,NNW,20.7,-,N/A,,Mostly Cloudy,340,2013-05-10 20:53:00
3:53 PM,57.9,26.1,30,30.35,10.0,NNW,12.7,-,N/A,,Mostly Cloudy,340,2013-05-10 21:53:00
4:53 PM,62.1,25.0,24,30.33,10.0,NNW,17.3,25.3,N/A,,Mostly Cloudy,340,2013-05-10 22:53:00
5:53 PM,61.0,23.0,23,30.33,10.0,NNW,19.6,24.2,N/A,,Mostly Cloudy,340,2013-05-10 23:53:00
6:53 PM,59.0,21.9,24,30.32,10.0,NNW,16.1,-,N/A,,Overcast,330,2013-05-11 00:53:00
7:32 PM,57.2,23.0,27,30.31,1.8,NNW,11.5,-,N/A,,Haze,330,2013-05-11 01:32:00
7:53 PM,55.9,21.9,27,30.33,10.0,NNW,11.5,-,N/A,,Scattered Clouds,330,2013-05-11 01:53:00
8:53 PM,48.9,23.0,36,30.36,10.0,North,5.8,-,N/A,,Scattered Clouds,360,2013-05-11 02:53:00
9:53 PM,45.0,21.0,39,30.39,10.0,North,9.2,-,N/A,,Clear,10,2013-05-11 03:53:00
10:53 PM,43.0,21.9,43,30.40,10.0,NNE,11.5,-,N/A,,Clear,30,2013-05-11 04:53:00
11:53 PM,42.8,21.2,42,30.38,10.0,NE,12.7,-,N/A,,Clear,50,2013-05-11 05:53:00